Voltar ao catálogo

QIANFAN-23

AtivoComunicaçõesPO
NORAD 61556·PAYLOAD·🇨🇳 China

Lançado Oct 15, 2024 de Taiyuan Satellite Launch Center

Loading…

Próximas Passagens (próximas 24 horas)

TLE

AtualizadoSource: Space-Track

Época: Sep 14, 2026, 22:04 UTC

1 61556U 24185E   26257.92011247  .00000338  00000-0  16274-3 0  9998
2 61556  88.9842  45.9787 0008933 135.0614 225.1299 14.16551033108847

Acompanhe QIANFAN-23 em tempo real com AllMySat

Download on the App Store